contact:dominique.lefevre@mio.osupytheas.fr, maurice.libes@osupytheas.fr
Project:EMSO Ligure-ouest http://www.emso-fr.org/EMSO-France
Sensor Aquadopp, line 13 Serial AQD14315 
DOI : "https://doi.org/10.17882/74513; https://doi.org/10.17882/83244" 
Title:EMSO Ligure Ouest : Data ligne ALBATROSS capteur AQUADOPP - deploiement 2021
Id,Date,Profondeur,Latitude,Longitude,X_East,Y_North,Z_Up,Amplitude_X,Amplitude_Y,Amplitude_Z,Batterie,SoundSpeed,Heading,Pitch,Roll,Pressure,Temperature,Speed,Direction
, , m, degrees North, degrees East, m.s-1, m.s-1,m.s-1, 1, 1, 1, Volt, m.s-1, degree, degree, degree, dbar, degree_C, m.s-1, degree
09,2022-02-10T21:30:00,2000.0,42.79,6.0312,0.003,-0.028,0.03,73.0,69.0,73.0,12.2,1504.6,149.7,-0.8,0.9,1990.525,13.27,0.028,173.9
09,2022-02-10T22:00:00,2000.0,42.79,6.0312,0.02,0.0,-0.023,75.0,70.0,74.0,12.2,1504.6,148.4,-1.0,0.9,1990.531,13.27,0.02,90.0
09,2022-02-10T22:30:00,2000.0,42.79,6.0312,0.024,0.0,-0.017,68.0,63.0,67.0,12.2,1504.6,150.7,-0.8,0.9,1990.509,13.27,0.024,90.0
09,2022-02-10T23:00:00,2000.0,42.79,6.0312,-0.001,0.007,-0.016,74.0,67.0,68.0,12.2,1504.6,147.4,-1.0,0.9,1990.511,13.27,0.007,351.9
09,2022-02-11T00:00:00,2000.0,42.79,6.0312,0.007,-0.002,0.0,68.0,63.0,69.0,12.2,1504.6,150.0,-0.7,0.9,1990.544,13.27,0.007,105.9
09,2022-02-11T00:30:00,2000.0,42.79,6.0312,0.0,0.008,0.006,70.0,67.0,69.0,12.2,1504.6,153.3,-0.9,0.9,1990.509,13.27,0.008,0.0
09,2022-02-11T01:00:00,2000.0,42.79,6.0312,0.029,0.005,0.001,69.0,67.0,69.0,12.2,1504.6,151.7,-1.1,0.9,1990.593,13.27,0.029,80.2
09,2022-02-11T01:30:00,2000.0,42.79,6.0312,0.029,0.008,-0.015,73.0,69.0,72.0,12.2,1504.6,144.9,-0.6,0.9,1990.581,13.27,0.03,74.6
09,2022-02-11T02:00:00,2000.0,42.79,6.0312,0.037,0.024,-0.019,74.0,69.0,76.0,12.2,1504.6,136.1,-0.8,0.9,1990.6,13.27,0.044,57.0
09,2022-02-11T02:30:00,2000.0,42.79,6.0312,0.034,0.0,0.001,75.0,68.0,74.0,12.2,1504.6,139.0,-0.9,0.9,1990.563,13.27,0.034,90.0
09,2022-02-11T03:00:00,2000.0,42.79,6.0312,0.048,0.006,0.0,75.0,69.0,73.0,12.2,1504.6,134.2,-0.8,1.0,1990.615,13.27,0.048,82.9
09,2022-02-11T03:30:00,2000.0,42.79,6.0312,0.021,0.013,0.007,74.0,70.0,78.0,12.2,1504.6,120.0,-0.7,1.0,1990.621,13.27,0.024,58.2
09,2022-02-11T04:00:00,2000.0,42.79,6.0312,0.025,0.031,-0.016,74.0,71.0,71.0,12.2,1504.6,124.1,-1.0,1.0,1990.641,13.27,0.039,38.9
09,2022-02-11T04:30:00,2000.0,42.79,6.0312,0.039,-0.005,-0.014,73.0,69.0,74.0,12.2,1504.6,115.7,-0.7,1.0,1990.581,13.27,0.039,97.3
09,2022-02-11T05:00:00,2000.0,42.79,6.0312,0.031,0.03,-0.021,75.0,70.0,73.0,12.2,1504.6,100.0,-0.8,1.1,1990.624,13.27,0.043,45.9
09,2022-02-11T05:30:00,2000.0,42.79,6.0312,0.054,0.018,-0.024,74.0,71.0,71.0,12.2,1504.6,101.1,-0.6,1.1,1990.653,13.27,0.056,71.6
09,2022-02-11T06:00:00,2000.0,42.79,6.0312,0.054,0.0,-0.02,75.0,68.0,71.0,12.2,1504.6,116.7,-1.4,0.9,1990.614,13.27,0.053,90.0
09,2022-02-11T06:30:00,2000.0,42.79,6.0312,0.044,-0.016,-0.029,74.0,69.0,72.0,12.2,1504.6,113.5,-1.2,1.1,1990.617,13.27,0.046,110.0
09,2022-02-11T07:00:00,2000.0,42.79,6.0312,0.059,-0.003,-0.015,71.0,69.0,71.0,12.2,1504.6,108.3,-1.1,1.1,1990.598,13.27,0.059,92.9
09,2022-02-11T07:30:00,2000.0,42.79,6.0312,0.045,-0.002,-0.01,72.0,67.0,71.0,12.2,1504.6,109.9,-0.7,1.1,1990.588,13.27,0.045,92.5
09,2022-02-11T08:00:00,2000.0,42.79,6.0312,0.069,0.003,0.014,71.0,66.0,68.0,12.2,1504.6,97.5,-0.8,1.1,1990.621,13.27,0.069,87.5
09,2022-02-11T08:30:00,2000.0,42.79,6.0312,0.045,-0.001,0.023,71.0,66.0,70.0,12.2,1504.6,106.3,-0.9,0.9,1990.59,13.27,0.045,91.3
09,2022-02-11T09:00:00,2000.0,42.79,6.0312,0.036,-0.025,0.004,69.0,65.0,71.0,12.2,1504.6,127.7,-0.8,1.0,1990.619,13.27,0.043,124.8
09,2022-02-11T09:30:00,2000.0,42.79,6.0312,0.048,-0.015,-0.002,68.0,64.0,69.0,12.2,1504.6,108.1,-0.7,1.1,1990.613,13.27,0.05,107.4
09,2022-02-11T10:00:00,2000.0,42.79,6.0312,0.051,-0.036,-0.009,67.0,62.0,66.0,12.2,1504.6,130.1,-0.7,1.0,1990.593,13.27,0.062,125.2
09,2022-02-11T10:30:00,2000.0,42.79,6.0312,0.045,-0.038,-0.006,68.0,63.0,65.0,12.2,1504.6,122.9,-1.2,1.0,1990.589,13.27,0.058,130.2
09,2022-02-11T11:00:00,2000.0,42.79,6.0312,0.03,-0.027,-0.019,66.0,64.0,66.0,12.2,1504.6,122.6,-1.0,0.9,1990.555,13.27,0.04,132.0
09,2022-02-11T11:30:00,2000.0,42.79,6.0312,0.031,-0.019,0.013,67.0,61.0,67.0,12.1,1504.6,112.8,-0.8,0.9,1990.572,13.27,0.036,121.5
09,2022-02-11T12:00:00,2000.0,42.79,6.0312,0.038,-0.012,-0.029,70.0,65.0,68.0,12.2,1504.6,119.9,-0.7,1.0,1990.564,13.27,0.039,107.5
09,2022-02-11T13:00:00,2000.0,42.79,6.0312,0.03,-0.017,-0.009,66.0,64.0,69.0,12.2,1504.6,115.2,-0.8,1.0,1990.555,13.27,0.034,119.5
09,2022-02-11T13:30:00,2000.0,42.79,6.0312,0.056,-0.014,0.001,67.0,63.0,67.0,12.2,1504.6,120.5,-0.9,1.0,1990.601,13.27,0.057,104.0
09,2022-02-11T14:00:00,2000.0,42.79,6.0312,0.047,0.008,-0.012,67.0,67.0,67.0,12.2,1504.6,116.4,-1.0,0.9,1990.55,13.27,0.047,80.3
09,2022-02-11T14:30:00,2000.0,42.79,6.0312,0.025,-0.01,-0.001,66.0,62.0,66.0,12.2,1504.6,107.6,-0.9,0.9,1990.612,13.27,0.026,111.8
09,2022-02-11T15:00:00,2000.0,42.79,6.0312,0.051,-0.015,0.004,67.0,62.0,63.0,12.2,1504.6,113.1,-0.9,0.9,1990.563,13.27,0.053,106.4
09,2022-02-11T15:30:00,2000.0,42.79,6.0312,0.049,0.002,-0.016,68.0,65.0,65.0,12.2,1504.6,113.3,-0.8,0.9,1990.573,13.27,0.049,87.7
09,2022-02-11T16:00:00,2000.0,42.79,6.0312,0.026,0.007,-0.025,67.0,62.0,63.0,12.2,1504.6,112.0,-0.9,1.0,1990.605,13.27,0.026,74.9
09,2022-02-11T16:30:00,2000.0,42.79,6.0312,0.026,0.011,-0.017,69.0,63.0,66.0,12.2,1504.6,109.5,-1.1,1.0,1990.621,13.27,0.028,67.1
09,2022-02-11T17:00:00,2000.0,42.79,6.0312,0.033,0.008,-0.014,68.0,63.0,66.0,12.2,1504.6,106.3,-0.6,1.0,1990.63,13.27,0.033,76.4
09,2022-02-11T17:30:00,2000.0,42.79,6.0312,0.059,0.027,0.008,69.0,65.0,65.0,12.2,1504.6,107.9,-0.6,0.8,1990.61,13.27,0.064,65.4
09,2022-02-11T18:00:00,2000.0,42.79,6.0312,0.041,0.003,-0.007,70.0,64.0,67.0,12.2,1504.6,99.5,-1.1,1.1,1990.57,13.27,0.041,85.8
09,2022-02-11T18:30:00,2000.0,42.79,6.0312,0.045,0.028,-0.007,69.0,64.0,71.0,12.2,1504.6,111.7,-0.2,1.0,1990.562,13.27,0.053,58.1
09,2022-02-11T19:00:00,2000.0,42.79,6.0312,0.048,0.021,0.005,68.0,67.0,69.0,12.1,1504.6,94.7,-1.1,1.1,1990.556,13.27,0.052,66.4
09,2022-02-11T19:30:00,2000.0,42.79,6.0312,0.037,0.013,-0.023,70.0,64.0,67.0,12.2,1504.6,93.8,-1.0,1.0,1990.577,13.27,0.039,70.6
09,2022-02-11T20:00:00,2000.0,42.79,6.0312,0.063,0.007,-0.014,69.0,64.0,68.0,12.2,1504.6,99.6,-0.6,1.0,1990.568,13.27,0.063,83.7
09,2022-02-11T20:30:00,2000.0,42.79,6.0312,0.051,0.019,-0.019,69.0,65.0,69.0,12.2,1504.6,81.8,-0.6,1.0,1990.542,13.27,0.054,69.6
09,2022-02-11T21:00:00,2000.0,42.79,6.0312,0.061,-0.002,-0.014,70.0,64.0,68.0,12.2,1504.6,104.9,-1.3,1.2,1990.517,13.27,0.061,91.9
